[[{"header":{"parameterUnit":"m.s-1","parameterCategory":1,"la1":30.2991,"la2":30.254,"lo1":-89.0895,"lo2":-89.0444,"dy":0.0017,"dx":0.0017,"nx":28,"ny":28,"refTime":"2025-05-28T09:00:00:Z","depth":0,"parameterNumber":2,"parameterNumberName":"U-component_of_WINDS"},"data":[0,0,0,0,0,0,0,0,0,0,0,0,0,0,0,0,0,0,0,0,0,0,0,0,0,0,0,0,0,0,0,0,0,0,0,0,0,0,0,0,0,0,0,0,0,0,0,0,0,0,0,0,0,0,0,0,0,0,-2.039,-2.0386,0,-2.0053,-2.0049,-2.0045,-1.9847,-1.9846,-1.9845,-1.9844,-1.9482,-1.9474,-1.9465,0,0,0,0,0,0,0,0,0,0,0,0,0,-2.0841,-2.0834,-2.039,-2.0386,-2.0382,-2.0054,-2.0049,-2.0044,-1.9847,-1.9846,-1.9845,-1.9844,-1.9485,-1.9475,-1.9464,0,0,0,0,0,0,0,0,0,0,0,0,0,-2.0589,-2.0832,-2.0391,-2.0244,-2.0228,-2.0055,-2.0049,-2.0043,-1.9847,-1.9846,-1.9845,-1.9843,-1.9489,-1.9476,-1.9463,-1.9405,0,0,-1.9422,-1.9416,0,0,0,0,0,0,0,0,-2.0603,-2.0572,-2.027,-2.0254,-2.0235,-1.9991,-2.0075,-1.9828,-1.9847,-1.9991,-1.9844,-1.9843,-1.9651,-1.9625,-1.9564,-1.9388,-1.9372,-1.9421,-1.9413,-1.9407,-1.9403,0,0,0,0,0,0,0,-2.0621,-2.0585,-2.0256,-2.0266,-2.0244,-2.0188,-2.0151,-2.0027,-1.9831,-1.9978,-1.9963,-1.9927,-1.9642,-1.9577,-1.9554,-1.9367,-1.9421,-1.9409,-1.9401,-1.9396,-1.9117,-1.9117,0,0,0,0,0,0,-2.0665,-2.0602,-2.0267,-2.0246,-2.0421,-2.0181,-2.0139,-2.007,-1.9832,-1.9795,-1.9928,-1.9919,-1.96,-1.9569,-1.954,-1.9452,-1.9407,-1.9395,-1.9387,-1.9116,-1.9117,-1.9118,0,0,0,0,0,0,-2.0675,-2.0637,-2.028,-2.0419,-2.037,-2.0175,-2.0098,-2.0064,-2.0,-1.9795,-1.9757,-1.99,-1.9598,-1.9559,-1.9439,-1.9437,-1.9389,-1.9377,-1.9116,-1.9117,-1.9117,-1.9279,0,0,0,0,0,0,-2.0689,-2.0642,-2.0623,-2.0421,-2.0364,-2.0193,-2.0099,-2.0059,-1.9979,-1.9964,-1.9758,-1.9723,-1.9594,-1.946,-1.9426,-1.9417,-1.9366,-1.9115,-1.9116,-1.9117,-1.9273,-1.9285,-1.9296,0,0,0,0,0,-2.0706,-2.068,-2.0624,-2.0584,-2.0337,-2.0193,-2.0159,-2.0017,-1.998,-1.9956,-1.9823,-1.9729,-1.9443,-1.945,-1.9409,-1.9397,-1.9114,-1.9116,-1.9117,-1.9268,-1.9283,-1.9295,0,0,0,0,0,0,-2.0882,-2.0651,-2.0586,-2.0495,-2.0366,-2.016,-2.0126,-2.0038,-1.9913,-1.9903,-1.9726,-1.968,-1.9577,-1.9474,-1.9486,-1.9324,-1.9267,-1.9261,-1.9396,-1.9408,-1.9419,-1.9446,-1.9355,0,0,0,0,0,-2.0912,-2.0821,-2.062,-2.0559,-2.0498,-2.0324,-2.0255,-2.0157,-2.0013,-1.9956,-1.9814,-1.9673,-1.955,-1.9473,-1.9349,-1.9256,-1.9204,-1.9227,-1.9238,-1.9249,-1.9245,-1.918,-1.9186,-1.9122,-1.9122,-1.9122,0,0,-2.097,-2.0832,-2.0784,-2.0591,-2.0479,-2.0381,-2.0279,-2.0181,-2.0104,-1.9938,-1.9818,-1.9709,-1.9538,-1.9431,-1.9376,-1.9342,-1.925,-1.925,-1.926,-1.925,-1.9182,-1.9189,-1.9194,-1.9123,-1.9123,-1.9123,0,0,-2.1025,-2.0915,-2.085,-2.074,-2.0573,-2.0456,-2.044,-2.0246,-2.0169,-2.0045,-1.9918,-1.9819,-1.9614,-1.9497,-1.941,-1.9415,-1.9321,-1.9379,-1.9438,-1.9378,-1.9383,-1.9386,-1.9383,-1.9385,-1.9375,-1.9376,-1.9376,0,-2.1117,-2.0972,-2.0825,-2.0734,-2.065,-2.0499,-2.0427,-2.0325,-2.0124,-2.0066,-2.0032,-1.9767,-1.9642,-1.9502,-1.9503,-1.9439,-1.9409,-1.9402,-1.9395,-1.9397,-1.9398,-1.9393,-1.9393,-1.9383,-1.9383,-1.9382,-1.9381,0,-2.109,-2.099,-2.0956,-2.0771,-2.0682,-2.0601,-2.0435,-2.0361,-2.0268,-2.0153,-2.0024,-1.9868,-1.9708,-1.9667,-1.9574,-1.9511,-1.9494,-1.943,-1.937,-1.9415,-1.9407,-1.9404,-1.9395,-1.9392,-1.939,-1.9388,0,0,-2.1251,-2.0984,-2.0974,-2.0885,-2.0687,-2.0603,-2.0511,-2.0359,-2.0296,-2.016,-2.0074,-1.9901,-1.9839,-1.974,-1.9632,-1.958,-1.9587,-1.9519,-1.9513,-1.9535,-1.95,-1.9549,-1.955,-1.9523,-1.9522,-1.9522,-1.9513,0,-2.1275,-2.1112,-2.0974,-2.0857,-2.0758,-2.0611,-2.0529,-2.0394,-2.0282,-2.0176,-2.0048,-1.9928,-1.9857,-1.9796,-1.9738,-1.9599,-1.9577,-1.9598,-1.9434,-1.9431,-1.9482,-1.9546,-1.9598,-1.9598,-1.9509,-1.9509,-1.9508,0,-2.1284,-2.1159,-2.1034,-2.0842,-2.0795,-2.0726,-2.0571,-2.0474,-2.0315,-2.0235,-2.0125,-2.0011,-1.9898,-1.9849,-1.9686,-1.9704,-1.9627,-1.9548,-1.9544,-1.9522,-1.9472,-1.9523,-1.9595,-1.9594,-1.9503,-1.9503,-1.9503,0,-2.141,-2.1209,-2.1107,-2.1036,-2.081,-2.0763,-2.0665,-2.0506,-2.0421,-2.0283,-2.0224,-2.0074,-1.9991,-1.9873,-1.9718,-1.9698,-1.957,-1.9509,-1.9495,-1.9499,-1.9475,-1.9478,-1.9533,-1.943,-1.943,-1.943,-1.943,0,-2.1451,-2.138,-2.116,-2.1098,-2.1009,-2.0848,-2.0763,-2.0651,-2.0509,-2.0415,-2.0275,-2.0189,-1.9992,-1.9878,-1.9756,-1.9637,-1.96,-1.9528,-1.9496,-1.954,-1.9549,-1.9487,-1.9482,-1.943,-1.943,-1.943,-1.943,0,-2.1578,-2.1429,-2.1307,-2.1103,-2.105,-2.0994,-2.0814,-2.0743,-2.0622,-2.0505,-2.0467,-2.0274,-2.0134,-1.9968,-1.9772,-1.9689,-1.9578,-1.9532,-1.9635,-1.9616,-1.961,-1.9612,-1.9626,-1.9617,-1.9524,-1.9525,-1.9526,0,-2.1614,-2.1556,-2.1346,-2.1277,-2.1184,-2.1073,-2.0986,-2.0822,-2.0735,-2.0546,-2.0496,-2.0346,-2.0217,-1.9997,-1.9835,-1.9682,-1.9629,-1.9644,-1.9605,-1.9649,-1.9624,-1.9629,-1.9619,-1.9655,-1.9657,-1.9658,-1.9659,0,-2.1693,-2.1621,-2.1505,-2.1362,-2.1263,-2.1141,-2.1011,-2.096,-2.0767,-2.0675,-2.0533,-2.0433,-2.0233,-2.0083,-1.9909,-1.9798,-1.9694,-1.9673,-1.9661,-1.9704,-1.9765,-1.9728,-1.9662,-1.9673,-1.9672,-1.9671,-1.967,-1.967,-2.1772,-2.1711,-2.1554,-2.1427,-2.1313,-2.1195,-2.1117,-2.0986,-2.0867,-2.0695,-2.0602,-2.046,-2.0292,-2.0049,-1.9942,-1.9822,-1.9786,-1.977,-1.9765,-1.9763,-1.9775,-1.9786,-1.979,-1.9789,-1.9788,-1.9788,-1.9787,0,-2.184,-2.1731,-2.1617,-2.1442,-2.134,-2.1257,-2.1107,-2.1025,-2.0904,-2.076,-2.0636,-2.0468,-2.032,-2.0145,-1.9983,-1.9921,-1.9868,-1.9883,-1.9885,-1.986,-1.9818,-1.9843,-1.9928,-1.9928,-1.9928,-1.9928,-1.9928,-1.9928,-2.1864,-2.1756,-2.1665,-2.1495,-2.1383,-2.1248,-2.1169,-2.1055,-2.0939,-2.076,-2.0639,-2.0527,-2.0367,-2.0192,-2.005,-2.0001,-1.9946,-1.9975,-1.9912,-1.9876,-1.9864,-1.9852,-1.9875,-1.9966,-1.9966,-1.9963,-1.9963,-1.9963]},{"header":{"parameterUnit":"m.s-1","parameterCategory":1,"la1":30.2991,"la2":30.254,"lo1":-89.0895,"lo2":-89.0444,"dy":0.0017,"dx":0.0017,"nx":28,"ny":28,"refTime":"2025-05-28T09:00:00:Z","depth":0,"parameterNumber":3,"parameterNumberName":"V-component_of_WINDS"},"data":[0,0,0,0,0,0,0,0,0,0,0,0,0,0,0,0,0,0,0,0,0,0,0,0,0,0,0,0,0,0,0,0,0,0,0,0,0,0,0,0,0,0,0,0,0,0,0,0,0,0,0,0,0,0,0,0,0,0,-2.8083,-2.8084,0,-2.8204,-2.8205,-2.8206,-2.8076,-2.8071,-2.8066,-2.8061,-2.8199,-2.8207,-2.8215,0,0,0,0,0,0,0,0,0,0,0,0,0,-2.7753,-2.7759,-2.8082,-2.8084,-2.8085,-2.8203,-2.8205,-2.8207,-2.8077,-2.8071,-2.8064,-2.8059,-2.8196,-2.8206,-2.8216,0,0,0,0,0,0,0,0,0,0,0,0,0,-2.7888,-2.7761,-2.8082,-2.8034,-2.8031,-2.8203,-2.8205,-2.8207,-2.8078,-2.807,-2.8063,-2.8056,-2.8193,-2.8205,-2.8217,-2.8446,0,0,-2.8256,-2.8261,0,0,0,0,0,0,0,0,-2.788,-2.79,-2.804,-2.8038,-2.8035,-2.8116,-2.8139,-2.8288,-2.808,-2.8061,-2.8061,-2.8052,-2.8179,-2.8192,-2.8232,-2.8453,-2.8459,-2.8257,-2.8264,-2.827,-2.8273,0,0,0,0,0,0,0,-2.7871,-2.7894,-2.8131,-2.8042,-2.8039,-2.8012,-2.8022,-2.8167,-2.8161,-2.8062,-2.8053,-2.8068,-2.8176,-2.822,-2.8234,-2.8461,-2.8257,-2.8268,-2.8275,-2.828,-2.8879,-2.8887,0,0,0,0,0,0,-2.7865,-2.7887,-2.8127,-2.8134,-2.7937,-2.8024,-2.8036,-2.8098,-2.8159,-2.8161,-2.8074,-2.8061,-2.8202,-2.8219,-2.8238,-2.8511,-2.827,-2.8282,-2.8289,-2.887,-2.8881,-2.889,0,0,0,0,0,0,-2.7858,-2.7887,-2.8122,-2.8008,-2.8036,-2.8037,-2.8109,-2.8105,-2.8148,-2.8168,-2.8168,-2.8119,-2.8197,-2.8221,-2.8395,-2.8514,-2.8287,-2.8299,-2.8861,-2.8874,-2.8885,-2.9059,0,0,0,0,0,0,-2.7849,-2.7886,-2.7969,-2.8011,-2.8042,-2.8273,-2.8116,-2.8112,-2.8169,-2.8153,-2.821,-2.8213,-2.8193,-2.8377,-2.8408,-2.8527,-2.8308,-2.885,-2.8866,-2.8881,-2.9043,-2.9076,-2.9104,0,0,0,0,0,-2.7838,-2.8016,-2.7974,-2.8004,-2.8146,-2.828,-2.8299,-2.8268,-2.8179,-2.8265,-2.8278,-2.8211,-2.8496,-2.8396,-2.8429,-2.8555,-2.8842,-2.8862,-2.888,-2.9029,-2.9069,-2.9104,0,0,0,0,0,0,-2.7993,-2.8021,-2.7975,-2.817,-2.8223,-2.8258,-2.8365,-2.8312,-2.8395,-2.8377,-2.8339,-2.8354,-2.8539,-2.8564,-2.8452,-2.8781,-2.8655,-2.8682,-2.8757,-2.8796,-2.8826,-2.8817,-2.8319,0,0,0,0,0,-2.8049,-2.8151,-2.8172,-2.8343,-2.8371,-2.8365,-2.8422,-2.8393,-2.8448,-2.8472,-2.8497,-2.8558,-2.866,-2.873,-2.8825,-2.9046,-2.9058,-2.9149,-2.918,-2.9205,-2.9229,-2.9349,-2.939,-2.8951,-2.8951,-2.8951,0,0,-2.8168,-2.8196,-2.8263,-2.8375,-2.8412,-2.8524,-2.8384,-2.8507,-2.8591,-2.8492,-2.8657,-2.8679,-2.8744,-2.8942,-2.9031,-2.8969,-2.9352,-2.9229,-2.9249,-2.9259,-2.9373,-2.9414,-2.9451,-2.8964,-2.8962,-2.896,0,0,-2.8441,-2.8471,-2.8617,-2.8657,-2.8715,-2.8709,-2.8745,-2.8787,-2.8797,-2.8961,-2.8889,-2.8991,-2.9168,-2.9218,-2.9266,-2.956,-2.9502,-2.9593,-2.9755,-2.9872,-2.9907,-2.9937,-3.0044,-3.0082,-2.9616,-2.9617,-2.9617,0,-2.8582,-2.8742,-2.8701,-2.8829,-2.8882,-2.8793,-2.8943,-2.8986,-2.9075,-2.9115,-2.9043,-2.9265,-2.9302,-2.9512,-2.9583,-2.9625,-2.9668,-2.9586,-2.9904,-2.9935,-2.9963,-3.0064,-3.0104,-2.9627,-2.9626,-2.9625,-2.9624,0,-2.8914,-2.9027,-2.9139,-2.9222,-2.9287,-2.9427,-2.9411,-2.9483,-2.945,-2.9453,-2.9624,-2.9665,-2.9768,-2.9816,-2.9786,-3.0023,-2.9983,-2.9909,-2.9782,-3.0016,-3.011,-3.0149,-2.9642,-2.9639,-2.9635,-2.9633,0,0,-2.9288,-2.9346,-2.9388,-2.9425,-2.9483,-2.9571,-2.9708,-2.9805,-2.9869,-2.9934,-3.005,-3.0203,-3.0134,-3.019,-3.0165,-3.0268,-3.05,-3.0181,-3.0182,-3.024,-3.0766,-3.0822,-3.0867,-3.0462,-3.0469,-3.0475,-3.0761,0,-2.9563,-2.9795,-2.9763,-2.9988,-3.0093,-3.0012,-3.0132,-3.0183,-3.019,-3.0284,-3.0294,-3.0403,-3.0303,-3.0336,-3.0435,-3.0451,-3.0605,-3.043,-3.0573,-3.0579,-3.056,-3.0916,-3.0976,-3.1244,-3.0798,-3.0804,-3.0808,0,-2.9914,-2.9987,-3.0222,-3.0264,-3.0307,-3.0415,-3.0502,-3.0592,-3.065,-3.0648,-3.071,-3.0667,-3.0809,-3.0679,-3.0876,-3.0757,-3.0814,-3.0831,-3.0841,-3.0854,-3.0708,-3.0941,-3.1329,-3.137,-3.0866,-3.0861,-3.0857,0,-3.0165,-3.0323,-3.0484,-3.0518,-3.0571,-3.0649,-3.0676,-3.0726,-3.0787,-3.0865,-3.0904,-3.1,-3.1052,-3.1129,-3.1115,-3.1021,-3.1317,-3.1185,-3.1322,-3.1323,-3.1389,-3.1385,-3.1793,-3.1425,-3.1424,-3.1423,-3.1422,0,-3.0476,-3.0623,-3.0597,-3.0697,-3.0861,-3.0824,-3.0989,-3.1006,-3.1052,-3.1156,-3.1093,-3.1193,-3.1167,-3.1268,-3.1258,-3.1424,-3.1448,-3.1454,-3.1449,-3.146,-3.1459,-3.1497,-3.1479,-3.1434,-3.1432,-3.143,-3.1428,0,-3.0784,-3.0772,-3.0942,-3.0978,-3.099,-3.111,-3.1143,-3.1239,-3.124,-3.1374,-3.1403,-3.1409,-3.1524,-3.1516,-3.1648,-3.1641,-3.1846,-3.182,-3.1825,-3.182,-3.1958,-3.1946,-3.2405,-3.2465,-3.2057,-3.2061,-3.2065,0,-3.0983,-3.1094,-3.1141,-3.1204,-3.1235,-3.1339,-3.1399,-3.137,-3.1437,-3.1511,-3.1599,-3.1708,-3.1793,-3.1982,-3.2,-3.2101,-3.2077,-3.2231,-3.2092,-3.2099,-3.2081,-3.2075,-3.2087,-3.2259,-3.2264,-3.2268,-3.2271,0,-3.1339,-3.1328,-3.1415,-3.1503,-3.1576,-3.1645,-3.1707,-3.1764,-3.174,-3.182,-3.1934,-3.2,-3.2133,-3.2243,-3.2339,-3.2371,-3.2319,-3.2314,-3.2351,-3.2363,-3.2362,-3.2366,-3.1901,-3.2304,-3.2301,-3.2298,-3.2296,-3.2295,-3.16,-3.1695,-3.1743,-3.1844,-3.1887,-3.1946,-3.2038,-3.205,-3.2144,-3.2247,-3.2225,-3.2355,-3.2413,-3.2535,-3.2577,-3.2681,-3.2626,-3.268,-3.2694,-3.2708,-3.2724,-3.2345,-3.2698,-3.2697,-3.2696,-3.2696,-3.2695,0,-3.1953,-3.198,-3.2073,-3.216,-3.2241,-3.218,-3.2246,-3.2319,-3.2432,-3.2488,-3.2573,-3.2706,-3.2813,-3.2839,-3.2942,-3.302,-3.2999,-3.3049,-3.3043,-3.3052,-3.2766,-3.2724,-3.3064,-3.3064,-3.3064,-3.3064,-3.3064,-3.3064,-3.2146,-3.2305,-3.23,-3.248,-3.2507,-3.263,-3.2674,-3.273,-3.2774,-3.2924,-3.3011,-3.3026,-3.3071,-3.3177,-3.3273,-3.3278,-3.332,-3.3379,-3.3376,-3.3109,-3.3072,-3.3037,-3.2997,-3.3389,-3.3389,-3.3652,-3.3655,-3.3657]}]]